Time[GMT],chlorophyll[micrograms/liter](3m),turbidity[ntus](3m)
2014-10-26 00:00,3.32,0.55
2014-10-26 01:00,3.16,0.54
2014-10-26 02:00,3.35,0.63
2014-10-26 03:00,3.35,0.69
2014-10-26 04:00,3.32,0.76
2014-10-26 05:00,3.16,0.68
2014-10-26 06:00,3.22,0.63
2014-10-26 07:00,3.19,0.60
2014-10-26 08:00,3.13,0.58
2014-10-26 09:00,3.07,0.50
2014-10-26 10:00,2.66,0.48
2014-10-26 11:00,2.91,0.47
2014-10-26 12:00,2.94,0.50
2014-10-26 13:00,2.97,0.50
2014-10-26 14:00,2.42,0.48
2014-10-26 15:00,3.07,0.45
2014-10-26 16:00,2.39,0.47
2014-10-26 17:00,3.25,0.54
2014-10-26 18:00,3.10,0.55
2014-10-26 19:00,3.87,0.55
2014-10-26 20:00,3.72,0.51
2014-10-26 21:00,3.38,0.48
2014-10-26 22:00,3.35,0.47
2014-10-26 23:00,3.28,0.44
2014-10-27 00:00,3.28,0.43
2014-10-27 01:00,3.10,0.43
2014-10-27 02:00,3.07,0.42
2014-10-27 03:00,3.01,0.45
2014-10-27 04:00,2.82,0.44
2014-10-27 05:00,2.54,0.50
2014-10-27 06:00,2.45,0.51
2014-10-27 07:00,2.63,0.48
2014-10-27 08:00,2.73,0.44
2014-10-27 09:00,2.94,0.41
2014-10-27 10:00,2.88,0.40
2014-10-27 11:00,2.91,0.39
2014-10-27 12:00,3.10,0.38
2014-10-27 13:00,3.16,0.40
2014-10-27 14:00,2.66,0.38
2014-10-27 15:00,2.45,0.40
2014-10-27 16:00,2.23,0.39
2014-10-27 17:00,2.17,0.38
2014-10-27 18:00,2.20,0.38
2014-10-27 19:00,2.66,0.38
2014-10-27 20:00,3.41,0.38
2014-10-27 21:00,3.69,0.40
2014-10-27 22:00,3.72,0.41
2014-10-27 23:00,3.78,0.41
2014-10-28 00:00,3.53,0.40
2014-10-28 01:00,4.31,0.36
2014-10-28 02:00,4.34,0.34
2014-10-28 03:00,3.84,0.36
2014-10-28 04:00,3.53,0.38
2014-10-28 05:00,3.41,0.37
2014-10-28 06:00,3.50,0.40
2014-10-28 07:00,3.53,0.38
2014-10-28 08:00,3.75,0.35
2014-10-28 09:00,3.25,0.37
2014-10-28 10:00,3.59,0.34
2014-10-28 11:00,3.69,0.32
2014-10-28 12:00,4.99,0.29
2014-10-28 13:00,5.21,0.30
2014-10-28 14:00,4.31,0.31
2014-10-28 15:00,4.06,0.31
2014-10-28 16:00,3.63,0.30
2014-10-28 17:00,3.78,0.30
2014-10-28 18:00,4.59,0.31
2014-10-28 19:00,5.64,0.31
2014-10-28 20:00,6.20,0.31
2014-10-28 21:00,5.42,0.34
2014-10-28 22:00,4.49,0.36
2014-10-28 23:00,4.15,0.35
2014-10-29 00:00,4.40,0.35
2014-10-29 01:00,4.18,0.34
2014-10-29 02:00,4.40,0.35
2014-10-29 03:00,4.25,0.35
2014-10-29 04:00,4.31,0.35
2014-10-29 05:00,4.65,0.34
2014-10-29 06:00,5.55,0.33
2014-10-29 07:00,5.70,0.31
2014-10-29 08:00,4.31,0.32
2014-10-29 09:00,4.74,0.32
2014-10-29 10:00,4.06,0.34
2014-10-29 11:00,4.12,0.34
2014-10-29 12:00,4.25,0.32
2014-10-29 13:00,7.16,0.32
2014-10-29 14:00,7.31,0.32
2014-10-29 15:00,7.41,0.34
2014-10-29 16:00,4.74,0.33
2014-10-29 17:00,4.99,0.38
2014-10-29 18:00,4.43,0.36
2014-10-29 19:00,3.63,0.36
2014-10-29 20:00,4.59,0.51
2014-10-29 21:00,4.12,0.45
2014-10-29 22:00,4.00,0.41
2014-10-29 23:00,4.34,0.40
2014-10-30 00:00,4.28,0.41
2014-10-30 01:00,4.56,0.40
2014-10-30 02:00,4.34,0.36
2014-10-30 03:00,4.46,0.40
2014-10-30 04:00,4.43,0.41
2014-10-30 05:00,4.43,0.40
2014-10-30 06:00,3.66,0.34
2014-10-30 07:00,3.47,0.30
2014-10-30 08:00,2.85,0.26
2014-10-30 09:00,2.91,0.27
2014-10-30 10:00,3.10,0.28
2014-10-30 11:00,3.04,0.28
2014-10-30 12:00,3.59,0.31
2014-10-30 13:00,3.53,0.30
2014-10-30 14:00,3.35,0.31
2014-10-30 15:00,5.33,0.35
2014-10-30 16:00,5.42,0.37
2014-10-30 17:00,5.45,0.37
2014-10-30 18:00,3.94,0.32
2014-10-30 19:00,6.20,0.30
2014-10-30 20:00,6.97,0.32
2014-10-30 21:00,6.20,0.29
2014-10-30 22:00,7.10,0.34
2014-10-30 23:00,6.11,0.41
2014-10-31 00:00,6.57,0.39
2014-10-31 01:00,7.66,0.40
2014-10-31 02:00,7.90,0.39
2014-10-31 03:00,8.21,0.39
2014-10-31 04:00,7.93,0.39
2014-10-31 05:00,7.81,0.37
2014-10-31 06:00,6.76,0.36
2014-10-31 07:00,6.45,0.37
2014-10-31 08:00,6.42,0.35
2014-10-31 09:00,6.32,0.35
2014-10-31 10:00,6.26,0.34
2014-10-31 11:00,6.14,0.34
2014-10-31 12:00,5.98,0.34
2014-10-31 13:00,5.36,0.34
2014-10-31 14:00,4.74,0.34
2014-10-31 15:00,4.46,0.34
2014-10-31 16:00,4.25,0.34
2014-10-31 17:00,3.59,0.35
2014-10-31 18:00,5.42,0.34
2014-10-31 19:00,5.80,0.34
2014-10-31 20:00,6.26,0.35
2014-10-31 21:00,6.38,0.35
2014-10-31 22:00,6.57,0.35
2014-10-31 23:00,7.35,0.35
2014-11-01 00:00,7.84,0.35
2014-11-01 01:00,7.44,0.35
2014-11-01 02:00,7.50,0.35
2014-11-01 03:00,6.69,0.34
2014-11-01 04:00,6.54,0.34
2014-11-01 05:00,6.45,0.34
2014-11-01 06:00,5.76,0.34
2014-11-01 07:00,5.45,0.33
2014-11-01 08:00,5.02,0.32
2014-11-01 09:00,4.43,0.31
2014-11-01 10:00,4.40,0.31
2014-11-01 11:00,4.40,0.31
2014-11-01 13:00,4.43,0.34
2014-11-01 14:00,3.94,0.31
2014-11-01 15:00,4.28,0.31
2014-11-01 16:00,4.83,0.32
2014-11-01 17:00,4.99,0.31
2014-11-01 18:00,5.08,0.31
2014-11-01 19:00,4.21,0.31
2014-11-01 20:00,3.90,0.30
2014-11-01 21:00,3.59,0.28
2014-11-01 22:00,3.41,0.30
2014-11-01 23:00,3.32,0.29
2014-11-02 00:00,3.44,0.30
2014-11-02 01:00,3.87,0.30
2014-11-02 02:00,3.90,0.30
2014-11-02 03:00,3.87,0.30
2014-11-02 04:00,3.50,0.30
2014-11-02 05:00,3.13,0.31
2014-11-02 06:00,3.16,0.31
2014-11-02 07:00,2.91,0.33
2014-11-02 08:00,2.82,0.35
2014-11-02 09:00,3.32,0.89
2014-11-02 10:00,3.87,1.22
2014-11-02 11:00,4.09,1.44
2014-11-02 12:00,3.41,1.22
2014-11-02 13:00,2.94,1.16
2014-11-02 14:00,2.48,0.70
2014-11-02 15:00,2.54,0.72
2014-11-02 16:00,2.54,0.67
2014-11-02 17:00,3.04,0.52
2014-11-02 18:00,3.53,0.58
2014-11-02 19:00,3.56,0.68
2014-11-02 20:00,3.84,1.28
2014-11-02 21:00,3.69,1.17
2014-11-02 22:00,3.50,1.13
2014-11-02 23:00,3.56,1.29
2014-11-03 00:00,3.53,1.22
2014-11-03 01:00,3.53,1.23
2014-11-03 02:00,3.50,1.21
2014-11-03 03:00,3.50,1.14
2014-11-03 04:00,3.53,1.10
2014-11-03 05:00,3.50,1.08
2014-11-03 06:00,3.53,1.03
2014-11-03 07:00,3.44,1.00
2014-11-03 08:00,3.59,1.11
2014-11-03 09:00,3.56,1.14
2014-11-03 10:00,3.63,1.19
2014-11-03 11:00,3.66,1.17
2014-11-03 12:00,3.69,1.20
2014-11-03 13:00,3.84,1.18
2014-11-03 14:00,3.66,1.12
2014-11-03 15:00,3.41,1.08
2014-11-03 16:00,3.25,1.16
2014-11-03 17:00,2.94,0.92
2014-11-03 18:00,3.04,0.71
2014-11-03 19:00,3.44,0.68
2014-11-03 20:00,4.00,0.67
2014-11-03 21:00,3.72,0.66
2014-11-03 22:00,3.78,0.64
2014-11-03 23:00,3.63,0.63
2014-11-04 00:00,3.75,0.61
2014-11-04 01:00,3.84,0.67
2014-11-04 02:00,4.03,0.76
2014-11-04 03:00,4.00,0.75
2014-11-04 04:00,3.84,0.61
2014-11-04 05:00,3.81,0.60
2014-11-04 06:00,3.78,0.59
2014-11-04 07:00,3.75,0.57
2014-11-04 08:00,3.75,0.55
2014-11-04 09:00,3.69,0.55
2014-11-04 10:00,3.75,0.60
2014-11-04 11:00,3.75,0.58
2014-11-04 12:00,3.94,0.74
2014-11-04 13:00,3.97,0.73
2014-11-04 14:00,4.09,0.70
2014-11-04 15:00,4.56,0.72
2014-11-04 16:00,4.46,0.70
2014-11-04 17:00,3.04,0.62
2014-11-04 18:00,4.87,0.53
2014-11-04 19:00,4.18,0.42
2014-11-04 20:00,3.97,0.44
2014-11-04 21:00,4.00,0.54
2014-11-04 22:00,3.90,0.60
2014-11-04 23:00,3.66,0.80
2014-11-05 00:00,4.28,0.48
2014-11-05 01:00,4.12,0.50
2014-11-05 02:00,3.66,0.47
2014-11-05 03:00,3.44,0.43
2014-11-05 04:00,3.47,0.74
2014-11-05 05:00,3.53,0.44
2014-11-05 06:00,3.81,0.51
2014-11-05 07:00,4.09,0.57
2014-11-05 08:00,4.00,0.55
2014-11-05 09:00,3.90,0.56
2014-11-05 10:00,3.84,0.54
2014-11-05 11:00,3.66,0.53
2014-11-05 12:00,3.44,0.48
2014-11-05 13:00,3.41,0.44
2014-11-05 14:00,3.50,0.40
2014-11-05 15:00,3.97,0.44
2014-11-05 16:00,4.18,0.47
2014-11-05 17:00,4.31,0.52
2014-11-05 18:00,3.94,0.52
2014-11-05 19:00,4.52,0.53
2014-11-05 20:00,4.56,0.51
2014-11-05 21:00,4.56,0.49
2014-11-05 22:00,4.00,0.47
2014-11-05 23:00,4.52,0.51
2014-11-06 00:00,5.58,0.53
2014-11-06 01:00,6.07,0.48
2014-11-06 02:00,6.60,0.51
2014-11-06 03:00,5.92,0.58
2014-11-06 04:00,6.23,0.53
2014-11-06 05:00,6.63,0.50
2014-11-06 06:00,6.45,0.49
2014-11-06 07:00,6.26,0.48
2014-11-06 08:00,5.80,0.48
2014-11-06 09:00,5.14,0.49
2014-11-06 10:00,4.83,0.49
2014-11-06 11:00,4.52,0.49
2014-11-06 12:00,4.43,0.47
2014-11-06 13:00,4.80,0.48
2014-11-06 14:00,5.05,0.48
2014-11-06 15:00,5.64,0.45
2014-11-06 16:00,5.30,0.50
2014-11-06 17:00,5.42,0.51
2014-11-06 18:00,4.83,0.53
2014-11-06 19:00,4.56,0.42
2014-11-06 20:00,5.67,0.47
2014-11-06 21:00,6.14,0.48
2014-11-06 22:00,5.98,0.48
2014-11-06 23:00,5.83,0.47
2014-11-07 00:00,5.52,0.45
2014-11-07 01:00,5.36,0.44
2014-11-07 02:00,4.77,0.43
2014-11-07 03:00,4.40,0.43
2014-11-07 04:00,4.25,0.43
2014-11-07 05:00,4.03,0.42
2014-11-07 06:00,4.15,0.41
2014-11-07 07:00,4.59,0.42
2014-11-07 08:00,4.65,0.41
2014-11-07 09:00,4.93,0.42
2014-11-07 10:00,4.56,0.42
2014-11-07 11:00,4.34,0.45
2014-11-07 12:00,4.18,0.40
2014-11-07 13:00,4.59,0.40
2014-11-07 14:00,4.59,0.43
2014-11-07 15:00,4.65,0.41
2014-11-07 16:00,3.28,0.35
2014-11-07 17:00,3.50,0.35
2014-11-07 18:00,2.88,0.34
2014-11-07 19:00,3.75,0.32
2014-11-07 20:00,3.72,0.35
2014-11-07 21:00,3.01,0.34
2014-11-07 22:00,3.01,0.34
2014-11-07 23:00,3.07,0.32
2014-11-08 00:00,3.56,0.33
2014-11-08 01:00,3.53,0.33
2014-11-08 02:00,3.16,0.37
2014-11-08 03:00,3.28,0.34
2014-11-08 04:00,3.32,0.28
2014-11-08 05:00,3.35,0.25
2014-11-08 06:00,3.28,0.26
2014-11-08 07:00,3.28,0.27
2014-11-08 08:00,3.13,0.31
2014-11-08 09:00,2.88,0.31
2014-11-08 10:00,2.54,0.33
2014-11-08 11:00,3.10,0.30
2014-11-08 12:00,3.50,0.32
2014-11-08 13:00,3.07,0.30
2014-11-08 14:00,2.35,0.29
2014-11-08 15:00,1.95,0.27
2014-11-08 16:00,1.83,0.28
2014-11-08 17:00,2.08,0.28
2014-11-08 18:00,2.26,0.27
2014-11-08 19:00,2.88,0.29
2014-11-08 20:00,4.12,0.30
2014-11-08 21:00,4.43,0.31
2014-11-08 22:00,4.65,0.32
2014-11-08 23:00,4.28,0.31
2014-11-09 00:00,3.66,0.30
2014-11-09 01:00,4.15,0.31
2014-11-09 02:00,4.25,0.31
2014-11-09 03:00,4.03,0.31
2014-11-09 04:00,3.90,0.30
2014-11-09 05:00,3.94,0.30
2014-11-09 06:00,4.00,0.30
2014-11-09 07:00,3.87,0.30
2014-11-09 08:00,3.84,0.30
2014-11-09 09:00,3.78,0.29
2014-11-09 10:00,3.59,0.29
2014-11-09 11:00,3.41,0.28
2014-11-09 12:00,3.41,0.28
2014-11-09 13:00,3.50,0.29
2014-11-09 14:00,3.78,0.28
2014-11-09 15:00,2.76,0.29
2014-11-09 16:00,3.38,0.28
2014-11-09 17:00,3.84,0.30
2014-11-09 18:00,3.53,0.30
2014-11-09 19:00,4.74,0.31
2014-11-09 20:00,5.08,0.31
2014-11-09 21:00,5.14,0.31
2014-11-09 22:00,5.05,0.31
2014-11-09 23:00,4.96,0.30
2014-11-10 00:00,4.87,0.30
2014-11-10 01:00,4.96,0.30
2014-11-10 02:00,5.08,0.31
2014-11-10 03:00,5.02,0.31
2014-11-10 04:00,4.74,0.31
2014-11-10 05:00,5.05,0.31
2014-11-10 06:00,4.74,0.31
2014-11-10 07:00,4.74,0.31
2014-11-10 08:00,4.74,0.30
2014-11-10 09:00,4.71,0.30
2014-11-10 10:00,4.59,0.30
2014-11-10 11:00,4.56,0.30
2014-11-10 12:00,4.59,0.30
2014-11-10 13:00,4.83,0.31
2014-11-10 14:00,3.97,0.30
2014-11-10 15:00,3.53,0.29
2014-11-10 16:00,3.41,0.28
2014-11-10 17:00,3.94,0.29
2014-11-10 18:00,4.12,0.30
2014-11-10 19:00,4.68,0.30
2014-11-10 20:00,5.92,0.31
2014-11-10 21:00,6.66,0.31
2014-11-10 22:00,6.45,0.31
2014-11-10 23:00,6.29,0.31
2014-11-11 00:00,6.20,0.30
2014-11-11 01:00,6.01,0.31
2014-11-11 02:00,5.76,0.31
2014-11-11 03:00,5.55,0.30
2014-11-11 04:00,5.42,0.28
2014-11-11 05:00,5.86,0.28
2014-11-11 06:00,5.52,0.28
2014-11-11 07:00,5.55,0.28
2014-11-11 08:00,5.61,0.28
2014-11-11 09:00,5.73,0.28
2014-11-11 10:00,5.58,0.28
2014-11-11 11:00,5.39,0.28
2014-11-11 12:00,5.42,0.27
2014-11-11 13:00,5.33,0.27
2014-11-11 14:00,4.34,0.27
2014-11-11 15:00,3.97,0.28
2014-11-11 16:00,3.87,0.27
2014-11-11 17:00,3.66,0.26
2014-11-11 18:00,4.25,0.28
2014-11-11 19:00,5.76,0.30
2014-11-11 20:00,6.32,0.30
2014-11-11 21:00,6.57,0.29
2014-11-11 22:00,6.32,0.29
2014-11-11 23:00,6.26,0.28
2014-11-12 00:00,6.26,0.28
2014-11-12 01:00,6.07,0.27
2014-11-12 02:00,5.92,0.27
2014-11-12 03:00,6.23,0.28
2014-11-12 04:00,6.26,0.28
2014-11-12 05:00,6.11,0.27
2014-11-12 06:00,6.11,0.27
2014-11-12 07:00,6.11,0.27
2014-11-12 08:00,6.23,0.28
2014-11-12 09:00,6.01,0.28
2014-11-12 10:00,6.32,0.28
2014-11-12 11:00,6.42,0.29
2014-11-12 12:00,6.35,0.31
2014-11-12 13:00,6.45,0.28
2014-11-12 14:00,6.38,0.30
2014-11-12 15:00,6.82,0.30
2014-11-12 16:00,6.94,0.32
2014-11-12 17:00,7.75,0.32
2014-11-12 18:00,8.49,0.34
2014-11-12 19:00,8.77,0.37
2014-11-12 20:00,8.93,0.35
2014-11-12 21:00,9.36,0.35
2014-11-12 22:00,9.02,0.34
2014-11-12 23:00,9.33,0.34
2014-11-13 00:00,8.58,0.32
2014-11-13 01:00,6.82,0.27
2014-11-13 02:00,7.69,0.31
2014-11-13 03:00,7.19,0.30
2014-11-13 04:00,5.92,0.29
2014-11-13 05:00,4.99,0.30
2014-11-13 06:00,4.15,0.29
2014-11-13 07:00,3.75,0.29
2014-11-13 08:00,3.66,0.28
2014-11-13 09:00,3.72,0.27
2014-11-13 10:00,4.06,0.27
2014-11-13 11:00,4.46,0.28
2014-11-13 12:00,4.56,0.28
2014-11-13 13:00,4.62,0.28
2014-11-13 14:00,3.63,0.28
2014-11-13 15:00,3.19,0.28
2014-11-13 16:00,3.13,0.28
2014-11-13 17:00,3.13,0.28
2014-11-13 18:00,3.87,0.27
2014-11-13 19:00,4.56,0.27
2014-11-13 20:00,4.87,0.30
2014-11-13 21:00,4.62,0.32
2014-11-13 22:00,5.24,0.40
2014-11-13 23:00,5.24,0.35
2014-11-14 00:00,5.42,0.32
2014-11-14 01:00,5.49,0.31
2014-11-14 02:00,5.86,0.30
2014-11-14 03:00,5.14,0.27
2014-11-14 04:00,5.21,0.28
2014-11-14 05:00,5.36,0.29
2014-11-14 06:00,5.42,0.31
2014-11-14 07:00,5.18,0.29
2014-11-14 08:00,4.80,0.30
2014-11-14 09:00,4.52,0.29
2014-11-14 10:00,4.28,0.30
2014-11-14 11:00,4.06,0.29
2014-11-14 12:00,4.00,0.30
2014-11-14 13:00,3.81,0.30
2014-11-14 14:00,3.75,0.30
2014-11-14 15:00,3.97,0.31
2014-11-14 16:00,3.10,0.30
2014-11-14 17:00,2.42,0.30
2014-11-14 18:00,2.94,0.31
2014-11-14 19:00,2.91,0.31
2014-11-14 20:00,4.28,0.31
2014-11-14 21:00,4.31,0.31
2014-11-14 22:00,4.34,0.31
2014-11-14 23:00,4.28,0.32
2014-11-15 00:00,4.25,0.32
2014-11-15 01:00,4.37,0.31
2014-11-15 02:00,4.37,0.31
2014-11-15 03:00,4.28,0.30
2014-11-15 04:00,4.34,0.30
2014-11-15 05:00,4.25,0.30
2014-11-15 06:00,4.18,0.29
2014-11-15 07:00,4.25,0.28
2014-11-15 08:00,4.28,0.28
2014-11-15 09:00,4.31,0.28
2014-11-15 10:00,4.18,0.28
2014-11-15 11:00,4.06,0.28
2014-11-15 12:00,3.87,0.28
2014-11-15 13:00,3.56,0.27
2014-11-15 14:00,2.42,0.28
2014-11-15 15:00,2.01,0.31
2014-11-15 16:00,1.95,0.30
2014-11-15 17:00,2.23,0.32
2014-11-15 18:00,2.42,0.31
2014-11-15 19:00,2.97,0.31
2014-11-15 20:00,4.12,0.32
2014-11-15 21:00,4.03,0.30
2014-11-15 22:00,3.78,0.28
2014-11-15 23:00,3.50,0.27
2014-11-16 00:00,3.56,0.28
2014-11-16 01:00,3.75,0.30
2014-11-16 02:00,3.63,0.31
2014-11-16 03:00,3.38,0.30
2014-11-16 04:00,3.47,0.31
2014-11-16 05:00,3.53,0.31
2014-11-16 06:00,3.53,0.31
2014-11-16 07:00,3.41,0.31
2014-11-16 08:00,3.28,0.25
2014-11-16 09:00,6.97,0.31
2014-11-16 10:00,6.63,0.30
2014-11-16 11:00,6.97,0.31
2014-11-16 12:00,7.47,0.32
2014-11-16 13:00,7.81,0.31
2014-11-16 14:00,7.93,0.30
2014-11-16 15:00,8.40,0.30
2014-11-16 16:00,8.68,0.32
2014-11-16 17:00,8.62,0.31
2014-11-16 18:00,8.06,0.31
2014-11-16 19:00,8.21,0.31
2014-11-16 20:00,7.10,0.32
2014-11-16 21:00,8.43,0.32
2014-11-16 22:00,6.63,0.31
2014-11-16 23:00,5.73,0.31
2014-11-17 00:00,4.40,0.28
2014-11-17 01:00,4.09,0.37
2014-11-17 02:00,4.12,0.34
2014-11-17 03:00,3.75,0.35
2014-11-17 04:00,3.84,0.32
2014-11-17 05:00,3.94,0.30
2014-11-17 06:00,3.94,0.29
2014-11-17 07:00,3.97,0.28
2014-11-17 08:00,3.87,0.28
2014-11-17 09:00,3.87,0.27
2014-11-17 10:00,3.84,0.27
2014-11-17 11:00,3.84,0.27
2014-11-17 12:00,3.72,0.26
2014-11-17 13:00,3.78,0.27
2014-11-17 14:00,3.84,0.27
2014-11-17 15:00,4.12,0.29
2014-11-17 16:00,4.37,0.30
2014-11-17 17:00,4.37,0.41
2014-11-17 18:00,4.06,0.40
2014-11-17 19:00,3.90,0.44
2014-11-17 20:00,4.21,0.90
2014-11-17 21:00,4.21,0.78
2014-11-17 22:00,4.25,0.33
2014-11-17 23:00,4.09,0.39
2014-11-18 00:00,4.18,0.40
2014-11-18 01:00,4.06,0.31
2014-11-18 02:00,3.97,0.30
2014-11-18 03:00,4.18,0.29
2014-11-18 04:00,3.97,0.28
2014-11-18 05:00,4.00,0.28
2014-11-18 06:00,3.90,0.29
2014-11-18 07:00,3.94,0.28
2014-11-18 08:00,4.00,0.28
2014-11-18 09:00,3.90,0.26
2014-11-18 10:00,3.56,0.28
2014-11-18 11:00,3.28,0.31
2014-11-18 12:00,3.07,0.33
2014-11-18 13:00,2.85,0.36
2014-11-18 14:00,2.73,0.37
2014-11-18 15:00,2.08,0.37
2014-11-18 16:00,2.11,0.34
2014-11-18 17:00,3.01,0.32
2014-11-18 18:00,2.26,0.31
2014-11-18 19:00,3.25,0.30
2014-11-18 20:00,3.75,0.32
2014-11-18 21:00,3.50,0.33
2014-11-18 22:00,3.25,0.34
2014-11-18 23:00,2.91,0.37
2014-11-19 00:00,2.73,0.40
2014-11-19 01:00,2.63,0.42
2014-11-19 02:00,2.60,0.42
2014-11-19 03:00,2.73,0.40
2014-11-19 04:00,2.85,0.35
2014-11-19 05:00,2.97,0.34
2014-11-19 06:00,2.91,0.32
2014-11-19 07:00,3.13,0.31
2014-11-19 08:00,3.10,0.31
2014-11-19 09:00,3.13,0.34
2014-11-19 10:00,2.94,0.34
2014-11-19 11:00,2.85,0.35
2014-11-19 12:00,2.73,0.35
2014-11-19 13:00,2.85,0.35
2014-11-19 14:00,2.17,0.35
2014-11-19 15:00,1.98,0.34
2014-11-19 16:00,1.98,0.32
2014-11-19 17:00,2.01,0.32
2014-11-19 18:00,2.23,0.31
2014-11-19 19:00,2.60,0.31
2014-11-19 20:00,3.44,0.29
2014-11-19 21:00,3.07,0.28
2014-11-19 22:00,3.01,0.28
2014-11-19 23:00,3.01,0.27
2014-11-20 00:00,2.91,0.28
2014-11-20 01:00,2.82,0.27
2014-11-20 02:00,2.82,0.27
2014-11-20 03:00,2.85,0.27
2014-11-20 04:00,2.82,0.24
2014-11-20 05:00,2.94,0.22
2014-11-20 06:00,3.04,0.23
2014-11-20 07:00,3.10,0.24
2014-11-20 08:00,3.07,0.25
2014-11-20 09:00,3.01,0.27
2014-11-20 10:00,2.63,0.30
2014-11-20 11:00,2.57,0.31
2014-11-20 12:00,2.63,0.30
2014-11-20 13:00,2.85,0.28
2014-11-20 14:00,2.94,0.28
2014-11-20 15:00,2.08,0.28
2014-11-20 16:00,1.92,0.30
2014-11-20 17:00,1.92,0.31
2014-11-20 18:00,2.23,0.37
2014-11-20 19:00,3.10,0.33
2014-11-20 20:00,3.19,0.30
2014-11-20 21:00,3.07,0.31
2014-11-20 22:00,2.94,0.33
2014-11-20 23:00,2.91,0.32
2014-11-21 00:00,2.91,0.34
2014-11-21 01:00,2.73,0.32
2014-11-21 02:00,2.76,0.32
2014-11-21 03:00,2.63,0.31
2014-11-21 04:00,2.57,0.33
2014-11-21 05:00,2.42,0.32
2014-11-21 06:00,2.42,0.35
2014-11-21 07:00,2.39,0.33
2014-11-21 08:00,2.42,0.34
2014-11-21 09:00,2.32,0.31
2014-11-21 10:00,2.26,0.31
2014-11-21 11:00,2.26,0.31
2014-11-21 12:00,2.26,0.31
2014-11-21 13:00,2.29,0.31
2014-11-21 14:00,2.04,0.32
2014-11-21 15:00,1.61,0.33
2014-11-21 16:00,1.58,0.34
2014-11-21 17:00,1.52,0.37
2014-11-21 18:00,1.46,0.40
2014-11-21 19:00,2.39,0.41
2014-11-21 20:00,2.70,0.44
2014-11-21 21:00,2.70,0.44
2014-11-21 22:00,2.70,0.42
2014-11-21 23:00,2.54,0.42
2014-11-22 00:00,2.54,0.42
2014-11-22 01:00,2.26,0.41
2014-11-22 02:00,2.45,0.38
2014-11-22 03:00,2.63,0.40
2014-11-22 04:00,2.70,0.38
2014-11-22 05:00,2.73,0.40
2014-11-22 06:00,2.48,0.42
2014-11-22 07:00,2.35,0.39
2014-11-22 08:00,2.48,0.41
2014-11-22 09:00,2.60,0.42
2014-11-22 10:00,2.63,0.41
2014-11-22 11:00,2.57,0.40
2014-11-22 12:00,2.51,0.40
2014-11-22 13:00,2.48,0.39
2014-11-22 14:00,1.95,0.40
2014-11-22 15:00,1.83,0.40
2014-11-22 16:00,2.26,0.40
2014-11-22 17:00,2.39,0.40
2014-11-22 18:00,1.98,0.39
2014-11-22 19:00,3.07,0.39
2014-11-22 20:00,3.10,0.39
2014-11-22 21:00,2.57,0.39
2014-11-22 22:00,3.01,0.43
2014-11-22 23:00,2.79,0.42
2014-11-23 00:00,2.70,0.40
2014-11-23 01:00,2.57,0.40
2014-11-23 02:00,2.48,0.39
2014-11-23 03:00,2.66,0.42
2014-11-23 04:00,2.66,0.42
2014-11-23 05:00,2.60,0.41
2014-11-23 06:00,2.60,0.41
2014-11-23 07:00,2.70,0.42
2014-11-23 08:00,2.70,0.41
2014-11-23 09:00,2.60,0.40
2014-11-23 10:00,2.63,0.40
2014-11-23 11:00,2.60,0.38
2014-11-23 12:00,2.57,0.38
2014-11-23 13:00,2.54,0.38
2014-11-23 14:00,2.73,0.38
2014-11-23 15:00,2.70,0.39
2014-11-23 16:00,2.17,0.39
2014-11-23 17:00,2.20,0.41
2014-11-23 18:00,2.32,0.42
2014-11-23 19:00,2.88,0.41
2014-11-23 20:00,3.38,0.41
2014-11-23 21:00,3.35,0.41
2014-11-23 22:00,3.28,0.38
2014-11-23 23:00,3.25,0.35
2014-11-24 00:00,3.32,0.36
2014-11-24 01:00,3.16,0.35
2014-11-24 02:00,3.04,0.37
2014-11-24 03:00,3.01,0.38
2014-11-24 04:00,3.01,0.39
2014-11-24 05:00,3.01,0.39
2014-11-24 06:00,3.04,0.38
2014-11-24 07:00,3.04,0.38
2014-11-24 08:00,3.01,0.35
2014-11-24 09:00,3.04,0.34
2014-11-24 10:00,3.10,0.35
2014-11-24 11:00,2.97,0.34
2014-11-24 12:00,2.85,0.35
2014-11-24 13:00,2.79,0.37
2014-11-24 14:00,2.82,0.38
2014-11-24 15:00,2.88,0.38
2014-11-24 16:00,2.79,0.34
2014-11-24 17:00,2.91,0.33
2014-11-24 18:00,3.16,0.32
2014-11-24 19:00,3.16,0.33
2014-11-24 20:00,3.28,0.37
2014-11-24 21:00,3.13,0.38
2014-11-24 22:00,3.25,0.35
2014-11-24 23:00,3.16,0.32
2014-11-25 00:00,3.07,0.31
2014-11-25 01:00,2.97,0.31
2014-11-25 02:00,2.88,0.31
2014-11-25 03:00,2.88,0.31
2014-11-25 04:00,2.91,0.32
2014-11-25 05:00,3.01,0.33
2014-11-25 06:00,2.97,0.32
2014-11-25 07:00,2.97,0.33
2014-11-25 08:00,2.94,0.32
2014-11-25 09:00,2.94,0.33
2014-11-25 10:00,2.94,0.33
2014-11-25 11:00,2.97,0.35
2014-11-25 12:00,2.91,0.36
2014-11-25 13:00,2.91,0.37
2014-11-25 14:00,3.25,0.34
2014-11-25 15:00,2.57,0.35
2014-11-25 16:00,3.69,0.36
2014-11-25 17:00,3.69,0.37
2014-11-25 18:00,4.09,0.35
2014-11-25 19:00,4.09,0.35
2014-11-25 20:00,4.09,0.34
2014-11-25 21:00,3.97,0.33
2014-11-25 22:00,4.03,0.32
2014-11-25 23:00,3.84,0.31
2014-11-26 00:00,3.78,0.32
2014-11-26 01:00,3.78,0.32
2014-11-26 02:00,3.75,0.32
2014-11-26 03:00,3.53,0.31
2014-11-26 04:00,3.50,0.31
2014-11-26 05:00,3.56,0.32
2014-11-26 06:00,3.59,0.32
2014-11-26 07:00,3.66,0.32
2014-11-26 08:00,3.72,0.32
2014-11-26 09:00,3.69,0.32
2014-11-26 10:00,3.72,0.34
2014-11-26 11:00,3.78,0.31
2014-11-26 12:00,3.63,0.31
2014-11-26 13:00,3.69,0.31
2014-11-26 14:00,3.66,0.31
2014-11-26 15:00,3.78,0.30
2014-11-26 16:00,3.87,0.31
2014-11-26 17:00,3.87,0.32
2014-11-26 18:00,3.53,0.32
2014-11-26 19:00,3.38,0.78
2014-11-26 20:00,3.13,0.64
2014-11-26 21:00,2.60,0.25
2014-11-26 22:00,2.45,0.24
2014-11-26 23:00,2.79,0.25
2014-11-27 00:00,2.70,0.27
2014-11-27 01:00,2.57,0.32
2014-11-27 02:00,2.48,0.24
2014-11-27 03:00,2.20,0.25
2014-11-27 04:00,1.98,0.25
2014-11-27 05:00,2.14,0.27
2014-11-27 06:00,2.14,0.29
2014-11-27 07:00,2.17,0.32
2014-11-27 08:00,2.20,0.31
2014-11-27 09:00,2.23,0.34
2014-11-27 10:00,2.20,0.37
2014-11-27 11:00,2.20,0.38
2014-11-27 12:00,2.35,0.40
2014-11-27 13:00,2.26,0.39
2014-11-27 14:00,2.26,0.39
2014-11-27 15:00,2.29,0.38
2014-11-27 16:00,2.29,0.34
2014-11-27 17:00,1.92,0.36
2014-11-27 18:00,1.86,0.38
2014-11-27 19:00,1.95,0.36
2014-11-27 20:00,1.73,0.38
2014-11-27 21:00,1.92,0.37
2014-11-27 22:00,1.83,0.37
2014-11-27 23:00,1.86,0.37
2014-11-28 00:00,2.04,0.34
2014-11-28 01:00,2.20,0.34
2014-11-28 02:00,2.26,0.33
2014-11-28 03:00,2.32,0.34
2014-11-28 04:00,2.48,0.35
2014-11-28 05:00,2.48,0.34
2014-11-28 06:00,2.39,0.34
2014-11-28 07:00,2.32,0.34
2014-11-28 08:00,2.20,0.34
2014-11-28 09:00,2.14,0.32
2014-11-28 10:00,2.04,0.34
2014-11-28 11:00,2.20,0.34
2014-11-28 12:00,2.54,0.35
2014-11-28 13:00,2.54,0.36
2014-11-28 14:00,2.57,0.41
2014-11-28 15:00,2.63,0.44
2014-11-28 16:00,2.94,0.48
2014-11-28 17:00,2.79,0.56
2014-11-28 18:00,2.79,0.50
2014-11-28 19:00,2.91,0.47
2014-11-28 20:00,2.66,0.49
2014-11-28 21:00,2.85,0.44
2014-11-28 22:00,3.25,0.48
2014-11-28 23:00,3.01,0.45
2014-11-29 00:00,3.13,0.50
2014-11-29 01:00,2.97,0.53
2014-11-29 02:00,2.94,0.52
2014-11-29 03:00,3.10,0.55
2014-11-29 04:00,3.22,0.55
2014-11-29 05:00,3.07,0.53
2014-11-29 06:00,2.94,0.51
2014-11-29 07:00,2.88,0.49
2014-11-29 08:00,2.85,0.48
2014-11-29 09:00,2.79,0.45
2014-11-29 10:00,2.73,0.45
2014-11-29 11:00,2.63,0.41
2014-11-29 12:00,2.73,0.43
2014-11-29 13:00,2.70,0.45
2014-11-29 14:00,2.39,0.47
2014-11-29 15:00,1.92,0.42
2014-11-29 16:00,1.98,0.41
2014-11-29 17:00,1.98,0.42
2014-11-29 18:00,2.04,0.42
2014-11-29 19:00,2.45,0.39
2014-11-29 20:00,3.38,0.42
2014-11-29 21:00,3.31,0.39
2014-11-29 22:00,3.38,0.41
2014-11-29 23:00,3.44,0.38
2014-11-30 00:00,3.16,0.39
2014-11-30 01:00,2.57,0.39
2014-11-30 02:00,2.66,0.37
2014-11-30 03:00,2.79,0.37
2014-11-30 04:00,2.79,0.39
2014-11-30 05:00,2.73,0.37
2014-11-30 06:00,2.66,0.37
2014-11-30 07:00,2.66,0.37
2014-11-30 08:00,2.66,0.38
2014-11-30 09:00,2.54,0.37
2014-11-30 10:00,2.51,0.36
2014-11-30 11:00,2.51,0.38
2014-11-30 12:00,2.48,0.37
2014-11-30 13:00,2.48,0.38
2014-11-30 14:00,2.70,0.41